ATLAS 5 CENTAUR DEB, 44643

Orbit data source: Space-Track

ATLAS 5 CENTAUR DEB, 44643 is space debris in HEO originally from a launch on Wed, 17 Oct 2018 UTC launched from the Air Force Eastern Test Range (AFETR). Debris objects in space refer to the collection of defunct objects orbiting the Earth. Examples of debris include non-operational satellites, rocket bodies, and fragments generated from explosions, collisions, or faulty payload assembly.

Loading next visibility...
ATLAS 5 CENTAUR DEB details
Identifier
44643, 2018-079D
Orbit
HEO
Last TLE update23 hours ago
Origin
Flag of USULA (US)
ManufacturerULA Decatur
MissionSpacecraft
Bus & MotorUnknown
MassUnknown
Launch date (UTC)
2018-10-17 (6 years ago)
Launch vehicleUnknown
Launch site
Air Force Eastern Test Range (AFETR)
Object type
Payload
Rocket body
Debris
Shape & HBRUnknown
Radar Cross SectionRCS unknown

Expand to show TLE details & history

TLE from 23 hours ago
0 ATLAS 5 CENTAUR DEB
1 44643U 18079D   24347.47116537 -.00000128  00000-0  00000+0 0  9991
2 44643  13.3177  71.2116 4784270 235.8802  69.1530  1.82009893 37209
Epoch: 2024-12-12T11:18Z
Definitive object data (Epoch: 2024-12-12T11:18:28.687Z)
Latitude0.00001°
Longitude179.86104°
Altitude23,508.174 km
Speed3.551 km/s
True Right ascension04h 44m 31s
True Declination0° 00' 00"
Sunlit
Object was in daylight at TLE epoch
Visualization TLE readout
Latitude2.37238°
Longitude-10.27573°
Altitude11,951.367 km
Speed5.425 km/s
Apparent Right ascension16h 56m 04s
Apparent Declination-9° 11' 26"
Sunlit
Object is in daylight
Visualization observer readout
Local Sidereal Time08:45:40
Azimuth75.263° E
Elevation-30.69°
Doppler factor1
Orbital elements
Apogee altitude35,517.717 km
Perigee altitude8,402.265 km
Semi-major axis28,338.128 km
Eccentricity0.478427
Inclination13.3177°
RAAN71.2116°
Arg. of periapsis235.8802°
True anomaly124.05311°
Mean anomaly69.153°
Eccentric anomaly96.39432°
Mean motion0.45497 °/min
BSTARUnknown
Orbital period791.25 mins
Loading maneuver chart data...

ATLAS 5 CENTAUR DEB Visibility forecast

Observer location: undefined°, undefined

Span
Click to sort rows by Start time (UTC) header in descending order
Start Az.
Max El. time (UTC)
Max El. Az.
Max El.
End time (UTC)
End Az.
580 mins2024-12-14 00:35:46.703Z200.049° SSW2024-12-14 09:27:46.703Z119.017° SE33.128°2024-12-14 10:15:46.703Z118.64° SE
|